Lid_Strength_Index
8 11 13 12 10 11 11 13 13 12 10 12 12 12 11 11 11 11 12 12 12 11 9 9 9 9 8 7 7 6 6 1 1 1 2 2 2 1 1 1 0 -0 -0 -0
10 13 11 11 12 11 12 13 14 12 11 12 11 11 10 10 11 11 12 12 12 12 11 10 10 10 9 9 7 6 6 6 4 1 1 1 1 1 1 1 1 0 -0 -0
12 12 10 13 14 15 13 14 16 17 14 11 12 12 11 10 10 11 11 11 12 12 12 12 11 11 10 10 9 9 7 6 4 5 1 3 4 6 6 4 3 2 1 1
11 11 13 13 15 14 15 14 15 15 16 17 12 17 12 12 12 12 12 11 12 12 12 12 12 12 11 10 9 9 8 8 5 4 2 3 3 5 5 3 4 5 4 3
13 14 15 15 16 14 15 13 14 14 14 14 14 15 14 13 15 14 13 12 11 11 11 12 11 11 11 11 10 9 9 9 7 5 3 2 2 2 3 4 5 5 6 6
13 11 14 14 13 13 13 13 13 12 13 17 15 16 16 16 16 15 13 13 12 11 11 10 10 10 10 10 11 10 9 9 9 8 5 6 2 2 3 4 5 6 7 8
14 15 14 13 15 13 14 14 17 18 18 19 14 17 17 15 15 14 14 13 12 12 12 11 11 10 10 11 11 11 10 10 10 9 8 6 4 2 2 4 4 8 8 9
18 18 16 14 15 16 16 15 19 23 21 20 16 19 16 14 13 12 13 13 13 12 12 12 11 10 10 10 10 11 11 10 9 10 10 8 6 3 2 4 5 6 7 8
19 18 15 15 14 14 16 17 15 19 18 20 17 16 14 13 13 13 13 13 13 12 11 11 11 11 10 10 9 9 10 10 9 9 10 10 8 7 3 4 4 5 6 7
17 20 16 16 14 14 15 15 18 17 23 24 19 18 17 14 13 12 13 13 12 11 10 10 10 10 10 10 9 8 9 9 9 9 9 9 9 8 6 5 5 5 6 7
16 19 17 15 17 18 16 18 18 18 19 21 23 19 12 12 12 13 11 10 10 10 9 9 9 8 8 8 9 8 8 9 9 9 8 9 9 9 8 7 7 7 7 8
16 18 20 18 15 15 15 18 18 20 21 19 19 22 11 11 11 11 10 9 9 9 9 8 8 8 8 8 8 9 8 8 8 8 9 9 9 10 9 9 8 8 9 9
15 18 21 19 18 16 18 16 16 17 18 21 21 19 10 9 10 10 10 9 8 8 8 8 8 8 8 7 8 9 9 8 8 8 9 9 10 10 10 10 9 10 10 11
14 17 19 21 19 17 19 17 15 17 20 19 18 16 12 11 11 10 9 9 9 8 8 8 8 8 7 7 7 8 8 8 8 7 8 10 9 10 11 10 10 10 11 11
14 19 18 18 17 17 18 17 15 17 16 19 17 16 13 11 11 10 9 9 9 9 8 8 8 7 7 7 7 7 7 8 8 8 8 9 9 9 10 11 11 11 11 12
14 19 20 21 18 18 20 16 15 15 15 15 14 15 10 9 9 10 9 9 9 8 8 8 7 7 7 7 7 7 7 8 7 8 8 9 9 9 10 11 11 11 12 12
16 17 19 22 20 22 23 18 16 15 13 13 16 12 10 10 10 10 8 9 9 8 7 7 7 7 6 6 6 7 7 6 8 8 8 8 9 10 10 10 11 13 13 12
15 17 17 21 20 25 17 12 13 14 13 12 12 11 10 10 9 9 7 8 8 7 6 7 6 6 5 5 5 6 6 6 7 8 8 9 10 10 11 11 12 12 13 13
13 15 18 21 21 19 16 13 14 14 15 11 11 11 10 9 9 9 7 7 7 6 6 5 5 5 5 5 5 6 6 7 8 8 9 10 10 11 11 11 12 12 13 13
15 14 16 18 23 24 15 11 10 11 18 10 10 11 11 10 14 11 7 6 6 6 6 6 6 5 6 7 6 7 7 8 8 8 9 9 10 11 11 10 11 11 12 13
18 17 19 18 19 18 11 10 10 18 16 9 10 10 10 11 10 8 7 7 6 6 7 5 6 7 7 7 6 7 8 9 8 8 9 9 10 11 10 10 10 11 12 12
17 18 19 18 20 20 9 11 14 10 8 8 8 9 9 9 8 8 7 7 7 7 7 6 7 8 7 6 7 8 9 8 9 9 10 10 10 10 10 10 10 10 10 11
17 13 14 15 15 9 7 8 7 6 7 8 8 8 8 9 8 8 7 7 7 7 7 7 9 9 8 8 8 9 9 10 9 10 11 11 10 10 9 9 9 10 10 11
13 10 12 13 11 9 8 6 6 6 6 6 6 7 7 9 8 8 7 7 7 7 7 7 8 9 10 9 9 10 10 9 11 12 12 11 10 9 9 8 8 9 10 10
11 10 11 12 10 8 7 6 6 6 5 6 6 7 7 8 8 7 7 7 7 7 7 8 10 10 10 10 11 11 10 11 13 13 12 10 9 10 10 10 9 8 9 9
9 10 11 12 8 7 7 5 4 6 6 6 6 7 7 7 8 7 8 7 8 9 10 11 12 12 13 13 13 12 13 14 14 13 11 11 11 11 11 10 10 7 7 7